Total_Precipitation_Accumulation
0.04 0.03 0.04 0.08 0.15 0.22 0.29 0.32 0.35 0.53 0.59 0.48 0.47 0.50 0.53 0.60 0.87 1.59 1.04 0.63 0.43 0.33 0.37 0.40 0.43 0.42 0.39 0.35 0.37 0.32 0.30 0.35 0.39 0.37 0.42 0.47 0.40 0.39 0.38 0.44 0.55 0.68 0.74 0.72 0.73 0.73 0.76 0.76 0.64
0.05 0.05 0.06 0.08 0.15 0.28 0.37 0.32 0.41 0.53 0.55 0.54 0.53 0.61 0.63 0.57 0.47 0.50 0.60 0.50 0.34 0.30 0.38 0.39 0.48 0.49 0.43 0.37 0.37 0.35 0.35 0.38 0.44 0.49 0.51 0.56 0.49 0.46 0.48 0.53 0.59 0.73 0.79 0.78 0.79 0.78 0.80 0.79 0.67
0.05 0.07 0.07 0.07 0.14 0.31 0.40 0.41 0.46 0.53 0.55 0.58 0.66 0.72 0.73 0.74 0.57 0.60 0.63 0.48 0.36 0.36 0.38 0.41 0.44 0.47 0.51 0.50 0.48 0.47 0.45 0.48 0.52 0.60 0.65 0.71 0.65 0.58 0.60 0.63 0.66 0.75 0.79 0.85 0.91 0.91 0.91 0.87 0.81
0.06 0.06 0.06 0.09 0.18 0.24 0.32 0.44 0.50 0.55 0.60 0.59 0.58 0.76 0.85 0.83 0.70 0.66 0.63 0.57 0.47 0.50 0.51 0.44 0.50 0.52 0.65 0.66 0.61 0.59 0.57 0.58 0.64 0.69 0.71 0.76 0.72 0.70 0.75 0.79 0.82 0.89 0.91 0.94 1.00 1.07 1.11 1.05 1.14
0.04 0.05 0.08 0.17 0.23 0.24 0.29 0.46 0.55 0.58 0.59 0.62 0.72 0.91 1.03 1.12 0.94 0.79 0.69 0.69 0.70 0.79 0.76 0.60 0.60 0.60 0.71 0.68 0.67 0.66 0.65 0.66 0.74 0.77 0.74 0.77 0.74 0.72 0.84 0.98 1.02 1.08 1.11 1.02 0.99 1.07 1.13 1.14 1.32
0.04 0.04 0.12 0.21 0.27 0.29 0.31 0.40 0.51 0.64 0.72 0.68 0.84 1.07 1.38 1.51 1.38 1.17 0.85 0.81 0.79 0.95 0.90 0.68 0.64 0.66 0.79 0.81 0.74 0.73 0.72 0.76 0.87 0.89 0.83 0.78 0.77 0.81 0.91 1.05 1.13 1.21 1.18 1.05 1.02 1.03 1.08 1.33 1.48
0.03 0.05 0.11 0.19 0.27 0.33 0.34 0.42 0.59 0.74 0.85 0.82 0.93 1.20 1.56 1.64 1.39 1.23 1.08 0.98 0.90 0.99 1.03 0.86 0.85 0.82 0.84 0.89 0.89 0.93 0.86 0.90 0.99 0.98 1.01 0.93 0.89 1.01 1.10 1.13 1.17 1.20 1.21 1.10 1.03 1.08 1.03 1.15 1.39
0.03 0.07 0.14 0.21 0.27 0.29 0.33 0.44 0.66 0.78 0.90 0.96 1.14 1.25 1.78 1.82 1.51 1.38 1.38 1.39 1.47 1.67 1.69 1.44 1.32 1.19 1.04 1.00 0.94 0.93 0.93 1.04 1.17 1.12 1.09 1.11 1.10 1.14 1.25 1.20 1.21 1.15 1.09 1.07 1.04 1.14 1.16 1.09 1.09
0.02 0.06 0.14 0.17 0.25 0.28 0.38 0.57 0.61 0.73 0.93 0.95 1.03 1.06 1.46 1.59 1.61 1.79 1.86 2.06 2.23 2.40 2.46 2.07 1.64 1.44 1.44 1.32 1.09 1.11 1.06 1.08 1.17 1.20 1.17 1.26 1.52 1.69 1.71 1.46 1.52 1.38 1.24 1.19 1.19 1.17 1.12 1.05 1.02
0.02 0.06 0.09 0.14 0.24 0.28 0.41 0.61 0.64 0.66 0.85 0.92 0.95 1.02 1.23 1.56 1.79 2.02 2.36 2.90 2.84 2.70 2.70 2.39 1.88 1.97 2.13 1.75 1.58 1.49 1.34 1.30 1.27 1.42 1.45 1.59 2.06 2.19 1.90 1.91 1.83 1.77 1.61 1.49 1.47 1.42 1.28 1.15 1.10
0.03 0.05 0.07 0.15 0.33 0.36 0.44 0.57 0.68 0.85 1.00 1.05 1.14 1.32 1.51 1.80 1.86 2.02 2.45 2.99 3.13 2.81 2.51 2.16 2.07 2.11 2.31 2.22 2.04 1.94 1.91 1.95 1.94 1.99 2.04 2.24 2.33 2.19 2.05 2.31 2.16 2.09 1.97 1.91 1.94 1.76 1.50 1.44 1.46
0.04 0.05 0.07 0.16 0.31 0.39 0.52 0.69 0.79 1.04 1.21 1.25 1.27 1.35 1.70 1.84 1.86 2.20 2.77 2.72 2.71 2.70 2.55 2.48 2.48 2.35 2.51 2.79 2.68 2.53 2.48 2.40 2.29 2.32 2.25 2.58 2.74 2.64 2.64 2.73 2.64 2.72 2.71 2.68 2.36 2.14 1.90 1.77 1.59
0.06 0.06 0.09 0.16 0.32 0.40 0.49 0.74 0.72 0.87 1.05 1.11 1.13 1.21 1.53 1.82 2.07 2.52 2.87 2.92 2.83 2.89 2.74 2.70 2.77 2.73 2.85 3.20 3.29 3.01 2.92 2.74 2.55 2.52 2.58 2.75 2.82 2.84 2.98 2.96 3.10 3.02 2.91 2.78 2.55 2.20 2.18 2.01 1.82
0.07 0.09 0.14 0.21 0.34 0.44 0.44 0.55 0.59 0.77 0.90 1.04 1.27 1.28 1.44 1.76 2.23 2.60 2.83 3.00 3.10 3.15 2.92 2.83 2.90 2.82 2.85 3.05 3.23 3.21 3.10 3.17 3.06 2.85 2.81 2.86 2.96 3.08 3.11 3.15 3.12 2.95 2.77 2.79 2.73 2.52 2.46 2.32 2.15
0.10 0.13 0.21 0.27 0.33 0.36 0.36 0.49 0.62 0.70 0.82 0.94 1.25 1.45 1.56 2.01 2.31 2.44 2.66 3.07 3.27 3.39 3.35 3.25 3.26 3.33 3.17 3.14 3.21 3.15 3.18 3.41 3.37 3.32 3.27 3.09 3.02 3.10 3.17 3.25 3.18 3.04 2.94 2.93 2.85 2.80 2.71 2.55 2.41
0.16 0.18 0.24 0.29 0.34 0.33 0.37 0.64 0.68 0.76 0.83 0.94 0.96 1.21 1.67 2.08 2.05 2.06 2.37 2.99 3.68 3.91 3.84 3.45 3.15 3.41 3.43 3.44 3.44 3.47 3.47 3.64 3.59 3.41 3.48 3.32 3.32 3.26 3.25 3.14 2.99 2.94 2.91 3.05 3.11 3.02 3.02 2.87 2.73
0.24 0.23 0.24 0.31 0.35 0.34 0.41 0.74 0.85 0.90 0.94 0.97 1.01 1.27 1.66 1.80 1.78 1.92 2.34 3.06 3.93 4.51 4.27 3.68 3.35 3.46 3.61 3.56 3.70 3.91 4.03 4.00 3.84 3.69 3.74 3.59 3.63 3.55 3.45 3.50 3.43 3.28 3.31 3.28 3.03 3.12 3.21 3.23 3.14
0.22 0.23 0.29 0.30 0.33 0.34 0.43 0.65 0.81 1.06 1.10 1.18 1.18 1.42 1.59 1.74 1.74 1.89 2.38 3.11 3.91 4.62 4.52 4.03 3.75 3.95 3.95 3.81 3.90 4.05 4.13 4.12 4.20 4.23 4.18 4.02 3.94 4.02 4.14 4.14 4.03 3.82 3.68 3.60 3.64 3.61 3.34 3.19 3.15
0.20 0.24 0.28 0.33 0.34 0.39 0.46 0.65 0.79 0.97 1.04 1.14 1.26 1.39 1.37 1.46 1.65 1.98 2.49 3.20 3.67 3.85 3.93 4.08 4.07 4.13 4.14 4.10 4.12 4.31 4.46 4.46 4.43 4.56 4.59 4.42 4.35 4.49 4.82 4.85 4.69 4.38 4.07 3.84 3.76 3.73 3.52 3.24 3.09
0.22 0.26 0.31 0.37 0.32 0.36 0.52 0.70 0.87 1.02 1.07 1.12 1.23 1.27 1.27 1.28 1.51 1.97 2.45 2.93 3.26 3.60 3.79 3.99 3.99 4.18 4.44 4.80 5.30 5.58 5.68 5.55 5.35 5.23 5.14 5.02 4.93 5.01 5.12 5.17 4.82 4.46 4.27 3.99 3.72 3.63 3.47 3.21 3.16
0.23 0.25 0.32 0.41 0.43 0.41 0.58 0.92 1.01 1.08 1.18 1.32 1.37 1.46 1.51 1.37 1.53 1.87 2.12 2.52 2.82 3.20 3.54 3.80 4.12 4.54 5.04 5.68 6.45 6.76 6.51 6.09 5.87 5.51 5.43 5.21 5.00 4.97 5.05 4.77 4.53 4.32 4.11 3.92 3.70 3.62 3.55 3.26 3.14
0.19 0.16 0.23 0.30 0.41 0.48 0.49 0.99 1.27 1.35 1.49 1.63 1.50 1.49 1.54 1.52 1.53 1.71 1.96 2.25 2.45 2.82 3.29 3.75 4.31 4.93 5.57 6.15 6.60 6.80 6.68 6.41 6.11 5.66 5.25 4.85 4.54 4.34 4.23 4.11 3.89 3.78 3.65 3.49 3.32 3.30 3.30 3.20 2.95
0.12 0.12 0.16 0.21 0.28 0.44 0.48 0.81 1.36 1.57 1.67 1.76 1.61 1.57 1.51 1.49 1.42 1.57 1.77 2.02 2.33 2.76 3.23 3.72 4.22 4.94 5.44 5.97 6.35 6.55 6.57 6.47 6.07 5.39 4.73 4.31 3.97 3.71 3.43 3.21 3.10 3.10 3.04 2.84 2.65 2.64 2.65 2.65 2.58
0.11 0.12 0.16 0.23 0.31 0.53 0.49 0.76 1.45 1.83 1.92 1.83 1.75 1.71 1.56 1.54 1.59 1.60 1.68 1.85 2.28 2.70 3.18 3.52 3.88 4.59 5.27 5.77 6.13 6.40 6.37 6.14 5.53 4.82 4.26 3.90 3.60 3.33 3.07 2.88 2.70 2.63 2.54 2.36 2.20 2.15 2.16 2.21 2.23
0.12 0.22 0.44 0.58 0.67 0.67 0.50 0.81 1.48 1.65 1.65 1.66 1.56 1.50 1.55 1.53 1.51 1.52 1.73 1.86 2.34 2.73 3.04 3.29 3.53 3.94 4.45 4.90 5.22 5.40 5.44 5.24 4.82 4.39 3.92 3.56 3.30 3.03 2.72 2.39 2.22 2.13 2.10 2.04 1.97 1.88 1.86 1.92 1.95
0.12 0.22 0.55 0.79 0.84 0.78 0.77 1.36 1.83 1.60 1.53 1.54 1.51 1.37 1.38 1.46 1.45 1.46 1.69 1.92 2.08 2.31 2.56 2.85 3.07 3.34 3.60 3.84 4.04 4.02 4.01 3.99 3.80 3.47 3.06 2.77 2.49 2.31 2.15 1.94 1.82 1.79 1.80 1.78 1.76 1.65 1.55 1.60 1.72
0.11 0.18 0.23 0.42 0.51 0.76 1.14 1.53 1.88 1.79 1.75 1.54 1.41 1.36 1.38 1.37 1.39 1.48 1.67 1.81 1.89 2.02 2.22 2.39 2.48 2.67 2.76 2.72 2.69 2.74 2.74 2.76 2.68 2.56 2.33 2.03 1.78 1.64 1.58 1.55 1.52 1.39 1.41 1.47 1.48 1.45 1.42 1.47 1.49
0.12 0.17 0.25 0.54 0.78 1.01 1.25 1.82 2.29 2.24 2.04 1.77 1.51 1.36 1.23 1.26 1.33 1.43 1.57 1.74 1.83 1.86 2.03 2.13 2.07 2.10 2.16 2.19 2.10 2.00 2.06 2.10 2.09 2.03 1.89 1.72 1.53 1.38 1.29 1.28 1.24 1.14 1.09 1.14 1.23 1.26 1.33 1.43 1.40
0.17 0.21 0.29 0.51 0.64 1.09 1.52 2.17 2.20 2.28 2.15 2.00 1.88 1.53 1.34 1.35 1.39 1.51 1.51 1.52 1.53 1.57 1.62 1.70 1.72 1.74 1.75 1.75 1.76 1.74 1.69 1.66 1.67 1.73 1.69 1.55 1.42 1.29 1.21 1.12 1.09 1.07 0.99 0.96 1.05 1.07 1.12 1.26 1.30
0.19 0.24 0.32 0.62 0.73 0.83 1.31 2.16 1.87 2.19 2.29 2.16 2.00 1.66 1.53 1.51 1.54 1.58 1.52 1.41 1.42 1.52 1.55 1.53 1.52 1.50 1.53 1.57 1.62 1.67 1.53 1.45 1.46 1.49 1.48 1.36 1.31 1.24 1.18 1.11 1.06 0.98 0.90 0.90 0.92 0.91 0.94 1.05 1.09